| time (UTC) | temp F | wind direction | speed knots | gust knots | rain 1hr in | rain 24hr in | rain mn in | humidity % | barometer mb |
| 20260906124554 | 76 | 63 | 0.9 | 3.5 | 0.00 | 0.00 | 0.00 | 88 | 1015.4 |
| 20260906123049 | 76 | 61 | 0.9 | 3.5 | 0.00 | 0.00 | 0.00 | 88 | 1015.1 |
| 20260906121557 | 75 | 0 | 0.0 | 1.7 | 0.00 | 0.00 | 0.00 | 89 | 1014.9 |
| 20260906120047 | 75 | 0 | 0.0 | 3.5 | 0.00 | 0.00 | 0.00 | 88 | 1014.9 |
| 20260906114602 | 76 | 32 | 0.9 | 4.3 | 0.00 | 0.00 | 0.00 | 88 | 1014.9 |
| 20260906113103 | 76 | 66 | 0.9 | 3.5 | 0.00 | 0.00 | 0.00 | 88 | 1014.8 |
| 20260906111548 | 76 | 95 | 0.9 | 2.6 | 0.00 | 0.00 | 0.00 | 88 | 1014.5 |
| 20260906110047 | 76 | 0 | 0.0 | 1.7 | 0.00 | 0.00 | 0.00 | 88 | 1014.1 |
| 20260906104551 | 76 | 0 | 0.0 | 0.0 | 0.00 | 0.00 | 0.00 | 87 | 1014.0 |
| 20260906103052 | 77 | 0 | 0.9 | 2.6 | 0.00 | 0.00 | 0.00 | 87 | 1014.0 |
| 20260906101547 | 77 | 0 | 0.0 | 1.7 | 0.00 | 0.00 | 0.00 | 87 | 1013.6 |
| 20260906100044 | 77 | 43 | 0.0 | 2.6 | 0.00 | 0.00 | 0.00 | 88 | 1013.6 |
| 20260906094552 | 77 | 44 | 1.7 | 3.5 | 0.00 | 0.00 | 0.00 | 88 | 1013.3 |
| 20260906093048 | 78 | 0 | 0.0 | 1.7 | 0.00 | 0.00 | 0.00 | 88 | 1013.2 |
| 20260906091550 | 78 | 0 | 0.0 | 1.7 | 0.00 | 0.00 | 0.00 | 88 | 1013.1 |
| 20260906090046 | 78 | 0 | 0.0 | 1.7 | 0.00 | 0.00 | 0.00 | 88 | 1012.8 |
| 20260906084550 | 79 | 0 | 0.0 | 0.9 | 0.00 | 0.00 | 0.00 | 87 | 1012.8 |
| 20260906083048 | 79 | 39 | 0.0 | 2.6 | 0.00 | 0.00 | 0.00 | 87 | 1012.7 |
| 20260906081555 | 79 | 39 | 0.0 | 3.5 | 0.00 | 0.00 | 0.00 | 86 | 1012.4 |
| 20260906080047 | 79 | 0 | 0.0 | 2.6 | 0.00 | 0.00 | 0.00 | 86 | 1012.5 |
| 20260906074545 | 80 | 39 | 0.9 | 2.6 | 0.00 | 0.00 | 0.00 | 85 | 1012.7 |
| 20260906073049 | 80 | 44 | 0.0 | 2.6 | 0.00 | 0.00 | 0.00 | 85 | 1012.9 |
| 20260906071548 | 80 | 17 | 0.9 | 2.6 | 0.00 | 0.00 | 0.00 | 84 | 1012.9 |
| 20260906070048 | 79 | 219 | 0.9 | 2.6 | 0.00 | 0.00 | 0.00 | 84 | 1013.0 |
| 20260906064551 | 79 | 217 | 0.9 | 2.6 | 0.00 | 0.00 | 0.00 | 83 | 1013.2 |
| 20260906063050 | 79 | 0 | 0.0 | 1.7 | 0.00 | 0.00 | 0.00 | 83 | 1013.0 |
| 20260906061548 | 78 | 0 | 0.0 | 1.7 | 0.00 | 0.00 | 0.00 | 84 | 1013.2 |
| 20260906060112 | 78 | 0 | 0.0 | 0.0 | 0.00 | 0.00 | 0.00 | 83 | 1013.3 |
| 20260906054551 | 78 | 0 | 0.0 | 0.0 | 0.00 | 0.00 | 0.00 | 83 | 1013.4 |
| 20260906053049 | 77 | 0 | 0.0 | 0.9 | 0.00 | 0.00 | 0.00 | 84 | 1013.3 |
| 20260906051550 | 77 | 0 | 0.0 | 0.0 | 0.00 | 0.00 | 0.00 | 85 | 1013.4 |
| 20260906044554 | 78 | 0 | 0.0 | 0.0 | 0.00 | 0.00 | 0.00 | 85 | 1013.0 |
| 20260906043048 | 78 | 0 | 0.0 | 0.0 | 0.00 | 0.00 | 0.00 | 85 | 1012.9 |
| 20260906041548 | 78 | 0 | 0.0 | 0.0 | 0.00 | 0.00 | 0.00 | 84 | 1012.9 |
| 20260906040058 | 79 | 0 | 0.0 | 0.0 | 0.00 | 0.00 | 0.00 | 82 | 1012.7 |
| 20260906034557 | 79 | 0 | 0.0 | 0.0 | 0.00 | 0.00 | 0.00 | 82 | 1012.5 |
| 20260906033049 | 79 | 0 | 0.0 | 0.0 | 0.00 | 0.00 | 0.00 | 81 | 1012.6 |
| 20260906031609 | 80 | 0 | 0.0 | 0.0 | 0.00 | 0.00 | 0.00 | 80 | 1012.6 |
| 20260906030052 | 81 | 0 | 0.0 | 0.0 | 0.00 | 0.00 | 0.00 | 78 | 1012.5 |
| 20260906024556 | 81 | 0 | 0.0 | 0.0 | 0.00 | 0.00 | 0.00 | 77 | 1012.5 |
| 20260906023105 | 82 | 0 | 0.0 | 0.0 | 0.00 | 0.00 | 0.00 | 75 | 1012.5 |
| 20260906021548 | 83 | 0 | 0.0 | 0.0 | 0.00 | 0.00 | 0.00 | 74 | 1012.4 |
| 20260906020056 | 84 | 0 | 0.0 | 0.9 | 0.00 | 0.00 | 0.00 | 72 | 1012.3 |
| 20260906014547 | 84 | 0 | 0.0 | 1.7 | 0.00 | 0.00 | 0.00 | 71 | 1012.0 |
| 20260906013052 | 84 | 0 | 0.0 | 0.0 | 0.00 | 0.00 | 0.00 | 70 | 1011.8 |
| 20260906011553 | 85 | 0 | 0.0 | 0.9 | 0.00 | 0.00 | 0.00 | 68 | 1011.5 |
| 20260906010050 | 86 | 0 | 0.0 | 0.9 | 0.00 | 0.00 | 0.00 | 66 | 1011.7 |
| 20260906004555 | 87 | 0 | 0.0 | 0.0 | 0.00 | 0.00 | 0.00 | 66 | 1011.4 |
| 20260906003054 | 88 | 0 | 0.0 | 1.7 | 0.00 | 0.00 | 0.00 | 64 | 1011.3 |
| 20260906001549 | 89 | 0 | 0.0 | 1.7 | 0.00 | 0.00 | 0.00 | 62 | 1011.3 |
| 20260906000058 | 90 | 0 | 0.9 | 2.6 | 0.00 | 0.00 | 0.00 | 60 | 1011.2 |
| 20260905234547 | 90 | 248 | 0.9 | 5.2 | 0.00 | 0.00 | 0.00 | 58 | 1011.5 |
| 20260905233101 | 92 | 0 | 0.0 | 2.6 | 0.00 | 0.00 | 0.00 | 57 | 1011.5 |
| 20260905231551 | 94 | 220 | 0.9 | 3.5 | 0.00 | 0.00 | 0.00 | 55 | 1011.6 |
| 20260905230050 | 96 | 236 | 0.9 | 4.3 | 0.00 | 0.00 | 0.00 | 52 | 1011.4 |
| 20260905224551 | 97 | 0 | 0.0 | 2.6 | 0.00 | 0.00 | 0.00 | 54 | 1011.1 |
| 20260905223049 | 97 | 225 | 0.0 | 1.7 | 0.00 | 0.00 | 0.00 | 53 | 1011.3 |
| 20260905221601 | 97 | 0 | 0.0 | 1.7 | 0.00 | 0.00 | 0.00 | 48 | 1011.1 |
| 20260905220057 | 99 | 35 | 0.0 | 6.1 | 0.00 | 0.00 | 0.00 | 46 | 1011.1 |
| 20260905214556 | 100 | 36 | 0.0 | 2.6 | 0.00 | 0.00 | 0.00 | 44 | 1011.2 |
| 20260905213048 | 101 | 0 | 0.9 | 5.2 | 0.00 | 0.00 | 0.00 | 44 | 1011.2 |
| 20260905211550 | 100 | 38 | 0.9 | 4.3 | 0.00 | 0.00 | 0.00 | 45 | 1011.2 |
| 20260905210050 | 100 | 38 | 0.9 | 3.5 | 0.00 | 0.00 | 0.00 | 46 | 1011.5 |
| 20260905204548 | 99 | 32 | 1.7 | 5.2 | 0.00 | 0.00 | 0.00 | 46 | 1011.7 |
| 20260905203048 | 99 | 0 | 0.9 | 4.3 | 0.00 | 0.00 | 0.00 | 48 | 1011.7 |
| 20260905201546 | 98 | 41 | 1.7 | 5.2 | 0.00 | 0.00 | 0.00 | 48 | 1011.9 |
| 20260905194549 | 98 | 42 | 0.0 | 2.6 | 0.00 | 0.00 | 0.00 | 47 | 1012.1 |
| 20260905193046 | 98 | 0 | 0.9 | 3.5 | 0.00 | 0.00 | 0.00 | 46 | 1012.5 |
| 20260905191546 | 101 | 47 | 0.0 | 3.5 | 0.00 | 0.00 | 0.00 | 43 | 1012.5 |
| 20260905190051 | 102 | 211 | 0.0 | 2.6 | 0.00 | 0.00 | 0.00 | 46 | 1012.6 |
| 20260905184554 | 101 | 250 | 0.0 | 3.5 | 0.00 | 0.00 | 0.00 | 46 | 1012.8 |
| 20260905183048 | 100 | 240 | 0.0 | 7.0 | 0.00 | 0.00 | 0.00 | 46 | 1013.2 |
| 20260905181545 | 100 | 0 | 0.0 | 2.6 | 0.00 | 0.00 | 0.00 | 50 | 1013.3 |
| 20260905180100 | 100 | 207 | 1.7 | 4.3 | 0.00 | 0.00 | 0.00 | 46 | 1013.6 |
| 20260905174550 | 99 | 242 | 0.9 | 5.2 | 0.00 | 0.00 | 0.00 | 48 | 1013.5 |
| 20260905173109 | 98 | 5 | 0.9 | 3.5 | 0.00 | 0.00 | 0.00 | 48 | 1013.6 |
| 20260905171553 | 98 | 26 | 0.9 | 5.2 | 0.00 | 0.00 | 0.00 | 49 | 1013.7 |
| 20260905170053 | 97 | 49 | 1.7 | 5.2 | 0.00 | 0.00 | 0.00 | 52 | 1014.0 |
| 20260905164555 | 97 | 213 | 0.9 | 2.6 | 0.00 | 0.00 | 0.00 | 51 | 1014.1 |
| 20260905163047 | 96 | 271 | 0.9 | 5.2 | 0.00 | 0.00 | 0.00 | 54 | 1014.3 |
| 20260905161559 | 96 | 65 | 0.0 | 4.3 | 0.00 | 0.00 | 0.00 | 55 | 1014.7 |
| 20260905160058 | 95 | 221 | 0.9 | 4.3 | 0.00 | 0.00 | 0.00 | 55 | 1014.8 |
| 20260905154552 | 95 | 41 | 0.0 | 2.6 | 0.00 | 0.00 | 0.00 | 58 | 1014.8 |
| 20260905153048 | 94 | 342 | 0.0 | 1.7 | 0.00 | 0.00 | 0.00 | 61 | 1014.7 |
| 20260905151558 | 92 | 0 | 0.9 | 3.5 | 0.00 | 0.00 | 0.00 | 63 | 1014.4 |
| 20260905150051 | 91 | 0 | 0.0 | 1.7 | 0.00 | 0.00 | 0.00 | 63 | 1014.4 |
| 20260905144549 | 90 | 0 | 0.0 | 2.6 | 0.00 | 0.00 | 0.00 | 65 | 1014.3 |
| 20260905143049 | 89 | 0 | 0.0 | 2.6 | 0.00 | 0.00 | 0.00 | 71 | 1014.3 |
| 20260905141547 | 87 | 0 | 0.0 | 1.7 | 0.00 | 0.00 | 0.00 | 72 | 1014.3 |
| 20260905140058 | 85 | 0 | 0.0 | 1.7 | 0.00 | 0.00 | 0.00 | 76 | 1014.6 |
| 20260905134558 | 82 | 0 | 0.0 | 0.0 | 0.00 | 0.00 | 0.00 | 82 | 1014.6 |
| 20260905133049 | 80 | 0 | 0.0 | 0.0 | 0.00 | 0.00 | 0.00 | 87 | 1014.7 |
| 20260905131547 | 79 | 0 | 0.0 | 0.0 | 0.00 | 0.00 | 0.00 | 88 | 1014.9 |